MSC Nuria — 3ESE2 — position and weather

sailwx.info

Track history (hours):
 
Tides and Currents Weather Stations Pressure Air Temp Water Temp Dewpoint Dewpoint Depression Visibility Wind Speed Wind Dir Waves Ship Positions

MSC Nuria

Last reported at 2015-Jul-02 15:32 UTC. Time now 2015-Jul-02 16:30 UTC.
Position N 53°32' E 009°54'.

Length 275 m; draft 10 m.

Type: Ship (hazmat cat A). MMSI: 370272977.

Date/timePositionNaut miles runAvg speedWind from/ knotsBaromVisibWave heightAir tempDewpointWater temp
2015-Jul-02 15:32N 53°32' E 009°54'0 0.0
2015-Jul-02 14:26N 53°32' E 009°54'0 0.0
2015-Jul-02 13:32N 53°32' E 009°54'0 0.0
2015-Jul-02 12:28N 53°32' E 009°54'0 0.0
2015-Jul-02 11:31N 53°32' E 009°54'0 0.0
2015-Jul-02 10:24N 53°32' E 009°54'0 0.0
2015-Jul-02 09:33N 53°32' E 009°54'0 0.0
2015-Jul-02 08:32N 53°32' E 009°54'0 0.0
2015-Jul-02 07:05N 53°32' E 009°54'0 0.0
2015-Jul-02 06:30N 53°32' E 009°54'0 0.0
2015-Jul-02 05:28N 53°32' E 009°54'0 0.0
2015-Jul-02 04:28N 53°32' E 009°54'1 0.9
2015-Jul-02 03:33N 53°32' E 009°53'9 9.0
2015-Jul-02 02:33N 53°34' E 009°39'1211.9
2015-Jul-02 01:33N 53°44' E 009°27'1313.0
2015-Jul-02 00:33N 53°53' E 009°10'1514.9
2015-Jul-01 23:33N 53°51' E 008°45'1815.5
2015-Jul-01 22:22N 53°60' E 008°17'8 9.8
2015-Jul-01 21:33N 53°59' E 008°04'8 7.3
2015-Jul-01 20:25N 53°58' E 007°50'3 3.5
2015-Jul-01 19:33N 54°01' E 007°47'13 4.3
2015-Jul-01 16:33N 53°51' E 008°02'1313.1
2015-Jul-01 15:34N 53°43' E 008°19'1111.4
2015-Jul-01 14:33N 53°34' E 008°32'0 0.0
2015-Jul-01 13:25N 53°34' E 008°32'0 0.0
2015-Jul-01 12:31N 53°34' E 008°32'0 0.0
2015-Jul-01 10:30N 53°34' E 008°32'0 0.0
2015-Jul-01 09:29N 53°34' E 008°32'0 0.0
2015-Jul-01 08:29N 53°34' E 008°32'0 0.0
2015-Jul-01 07:28N 53°34' E 008°32'0 0.0
2015-Jul-01 06:19N 53°34' E 008°32'0 0.0
2015-Jul-01 05:31N 53°34' E 008°32'0 0.0
2015-Jul-01 04:33N 53°34' E 008°32'0 0.0
2015-Jul-01 03:33N 53°34' E 008°32'0 0.0
2015-Jul-01 02:32N 53°34' E 008°32'0 0.0
2015-Jul-01 01:32N 53°34' E 008°32'0 0.0
2015-Jul-01 00:31N 53°34' E 008°32'0 0.0
2015-Jun-30 23:31N 53°34' E 008°32'0 0.0
2015-Jun-30 22:19N 53°34' E 008°32'2 2.3
2015-Jun-30 21:33N 53°36' E 008°31'1615.9
2015-Jun-30 20:33N 53°46' E 008°10'1513.9
2015-Jun-30 19:30N 53°53' E 007°48'5 5.7
2015-Jun-30 18:32N 53°54' E 007°39'0 0.5
2015-Jun-30 17:33N 53°54' E 007°39'0 0.3
2015-Jun-30 16:33N 53°54' E 007°38'1919.1
2015-Jun-30 15:34N 53°52' E 007°06'2019.7
2015-Jun-30 14:34N 53°47' E 006°34'2020.2
2015-Jun-30 13:34N 53°41' E 006°01'2020.3
2015-Jun-30 12:34N 53°34' E 005°29'2019.8
2015-Jun-30 11:33N 53°27' E 004°58'1919.1
2015-Jun-30 10:33N 53°14' E 004°34'2120.6
2015-Jun-30 09:32N 52°56' E 004°17'2020.3
2015-Jun-30 08:33N 52°40' E 003°58'2020.1
2015-Jun-30 07:33N 52°25' E 003°35'1918.8
2015-Jun-30 06:33N 52°12' E 003°13'1818.5
2015-Jun-30 05:33N 52°02' E 002°48'1919.2
2015-Jun-30 04:33N 51°55' E 002°19'1919.4
2015-Jun-30 03:33N 51°49' E 001°49'1110.9
2015-Jun-30 02:34N 51°47' E 001°32'1616.3
2015-Jun-30 01:33N 51°34' E 001°14'1615.6
2015-Jun-30 00:34N 51°29' E 000°51'1313.2
2015-Jun-29 23:33N 51°30' E 000°29'6 6.3
2015-Jun-29 22:34N 51°27' E 000°21'1 0.9
2015-Jun-29 21:33N 51°28' E 000°20'0 0.0
2015-Jun-29 20:33N 51°28' E 000°20'0 0.0
2015-Jun-29 19:33N 51°28' E 000°20'0 0.0
2015-Jun-29 18:33N 51°28' E 000°20'0 0.0
2015-Jun-29 17:33N 51°28' E 000°20'0 0.0
2015-Jun-29 16:33N 51°28' E 000°20'0 0.0
2015-Jun-29 15:33N 51°28' E 000°20'0 0.0
2015-Jun-29 14:33N 51°28' E 000°20'0 0.0
2015-Jun-29 13:33N 51°28' E 000°20'0 0.0
2015-Jun-29 12:33N 51°28' E 000°20'0 0.0
2015-Jun-29 11:33N 51°28' E 000°20'0 0.0
2015-Jun-29 10:33N 51°28' E 000°20'0 0.0
2015-Jun-29 09:34N 51°28' E 000°20'0 0.0
2015-Jun-29 08:34N 51°28' E 000°20'0 0.0
2015-Jun-29 07:33N 51°28' E 000°20'0 0.0
2015-Jun-29 06:33N 51°28' E 000°20'0 0.0
2015-Jun-29 05:33N 51°28' E 000°20'0 0.0
2015-Jun-29 04:34N 51°28' E 000°20'0 0.0
2015-Jun-29 03:34N 51°28' E 000°20'0 0.0
2015-Jun-29 02:34N 51°28' E 000°20'0 0.0
2015-Jun-29 01:34N 51°28' E 000°20'0 0.0
2015-Jun-29 00:31N 51°28' E 000°20'0 0.0
2015-Jun-28 23:31N 51°28' E 000°20'0 0.0
2015-Jun-28 22:34N 51°28' E 000°20'5 5.2
2015-Jun-28 21:33N 51°29' E 000°28'1212.5
2015-Jun-28 20:33N 51°29' E 000°48'1514.8
2015-Jun-28 19:33N 51°34' E 001°11'1716.7
2015-Jun-28 18:33N 51°45' E 001°31'10 9.6
2015-Jun-28 17:33N 51°51' E 001°42'4 3.8
2015-Jun-28 16:33N 51°50' E 001°47'1414.4
2015-Jun-28 15:34N 51°35' E 001°52'1817.7
2015-Jun-28 14:34N 51°22' E 002°10'1717.2
2015-Jun-28 13:34N 51°23' E 002°38'1111.0
2015-Jun-28 12:33N 51°23' E 002°55'1413.9
2015-Jun-28 11:34N 51°25' E 003°17'1211.9
2015-Jun-28 10:33N 51°26' E 003°36'1010.5
2015-Jun-28 09:33N 51°21' E 003°51'8 7.8
2015-Jun-28 08:33N 51°24' E 004°02'8 8.3
2015-Jun-28 07:33N 51°21' E 004°14'2 1.7
2015-Jun-28 06:33N 51°21' E 004°17'0 0.3
2015-Jun-28 05:33N 51°21' E 004°17'2 1.7
2015-Jun-28 04:33N 51°19' E 004°19'0 0.0
2015-Jun-28 03:33N 51°19' E 004°19'0 0.0
2015-Jun-28 02:32N 51°19' E 004°19'0 0.0
2015-Jun-28 01:32N 51°19' E 004°19'0 0.0
2015-Jun-28 00:32N 51°19' E 004°19'0 0.0
2015-Jun-27 23:31N 51°19' E 004°19'0 0.0
2015-Jun-27 22:28N 51°19' E 004°19'0 0.0
2015-Jun-27 21:33N 51°19' E 004°19'0 0.0
2015-Jun-27 20:33N 51°19' E 004°19'0 0.0
2015-Jun-27 19:32N 51°19' E 004°19'0 0.0
2015-Jun-27 18:32N 51°19' E 004°19'0 0.0
2015-Jun-27 17:32N 51°19' E 004°19'0 0.0
2015-Jun-27 16:31N 51°19' E 004°19'0 0.0
2015-Jun-27 15:31N 51°19' E 004°19'0 0.0
2015-Jun-27 14:33N 51°19' E 004°19'0 0.0
2015-Jun-27 13:33N 51°19' E 004°19'0 0.0
2015-Jun-27 12:32N 51°19' E 004°19'0 0.0
2015-Jun-27 11:32N 51°19' E 004°19'0 0.0
2015-Jun-27 10:32N 51°19' E 004°19'0 0.0
2015-Jun-27 09:31N 51°19' E 004°19'0 0.0
2015-Jun-27 08:33N 51°19' E 004°19'0 0.0
2015-Jun-27 07:33N 51°19' E 004°19'0 0.0
2015-Jun-27 06:33N 51°19' E 004°19'0 0.0
2015-Jun-27 05:33N 51°19' E 004°19'0 0.0
2015-Jun-27 04:32N 51°19' E 004°19'0 0.0
2015-Jun-27 03:32N 51°19' E 004°19'0 0.0
2015-Jun-27 02:31N 51°19' E 004°19'2 1.7
2015-Jun-27 01:33N 51°21' E 004°18'0 0.4
2015-Jun-27 00:33N 51°21' E 004°17'6 6.0
2015-Jun-26 23:33N 51°22' E 004°08'8 8.0
2015-Jun-26 22:33N 51°22' E 003°55'1211.6
2015-Jun-26 21:34N 51°26' E 003°38'1413.6
2015-Jun-26 20:33N 51°24' E 003°16'10 9.5
2015-Jun-26 19:33N 51°29' E 003°02'1313.4
2015-Jun-26 18:33N 51°40' E 003°13'7 7.2
2015-Jun-26 17:33N 51°47' E 003°17'0 0.2
2015-Jun-26 16:23N 51°47' E 003°18'0 0.1
2015-Jun-26 15:14N 51°47' E 003°18'0 0.0
2015-Jun-26 14:28N 51°47' E 003°18'0 0.0
2015-Jun-26 13:19N 51°47' E 003°18'0 0.0
2015-Jun-26 12:31N 51°47' E 003°18'0 0.0
2015-Jun-26 11:30N 51°47' E 003°18'0 0.0
2015-Jun-26 10:33N 51°47' E 003°18'0 0.0
2015-Jun-26 09:32N 51°47' E 003°18'0 0.0
2015-Jun-26 08:32N 51°47' E 003°18'0 0.0
2015-Jun-26 07:31N 51°47' E 003°18'0 0.0
2015-Jun-26 06:28N 51°47' E 003°18'0 0.0
2015-Jun-26 05:28N 51°47' E 003°18'0 0.0
2015-Jun-26 04:33N 51°47' E 003°18'0 0.0
2015-Jun-26 03:33N 51°47' E 003°18'0 0.0
2015-Jun-26 02:26N 51°47' E 003°18'0 0.0
2015-Jun-26 01:26N 51°47' E 003°18'0 0.0
2015-Jun-26 00:28N 51°47' E 003°18'0 0.0
2015-Jun-25 23:31N 51°47' E 003°18'0 0.0
2015-Jun-25 22:33N 51°47' E 003°18'0 0.0
2015-Jun-25 21:33N 51°47' E 003°18'0 0.0
2015-Jun-25 20:33N 51°47' E 003°18'0 0.0
2015-Jun-25 19:32N 51°47' E 003°18'0 0.0
2015-Jun-25 18:26N 51°47' E 003°18'0 0.0
2015-Jun-25 17:31N 51°47' E 003°18'0 0.0
2015-Jun-25 16:31N 51°47' E 003°18'2 1.9
2015-Jun-25 15:33N 51°47' E 003°15'1414.3
2015-Jun-25 14:33N 52°01' E 003°21'1514.7
2015-Jun-25 13:33N 52°03' E 003°45'1211.6
2015-Jun-25 12:33N 51°59' E 004°03'2 1.9
2015-Jun-25 11:33N 51°58' E 004°04'0 0.0
2015-Jun-25 10:33N 51°58' E 004°04'0 0.0
2015-Jun-25 09:32N 51°58' E 004°04'0 0.0
2015-Jun-25 08:32N 51°58' E 004°04'0 0.0
2015-Jun-25 07:31N 51°58' E 004°04'0 0.0
2015-Jun-25 06:31N 51°58' E 004°04'0 0.0
2015-Jun-25 05:33N 51°58' E 004°04'0 0.0
2015-Jun-25 04:33N 51°58' E 004°04'0 0.0
2015-Jun-25 03:33N 51°58' E 004°04'0 0.0
2015-Jun-25 02:32N 51°58' E 004°04'0 0.0
2015-Jun-25 01:32N 51°58' E 004°04'0 0.0
2015-Jun-25 00:31N 51°58' E 004°04'0 0.0
2015-Jun-24 23:31N 51°58' E 004°04'0 0.0
2015-Jun-24 22:33N 51°58' E 004°04'0 0.0
2015-Jun-24 21:33N 51°58' E 004°04'0 0.0
2015-Jun-24 20:32N 51°58' E 004°04'0 0.0
2015-Jun-24 19:32N 51°58' E 004°04'0 0.0
2015-Jun-24 18:32N 51°58' E 004°04'0 0.0
2015-Jun-24 17:31N 51°58' E 004°04'0 0.0
2015-Jun-24 16:28N 51°58' E 004°04'0 0.0
2015-Jun-24 15:33N 51°58' E 004°04'4 3.9
2015-Jun-24 14:33N 52°00' E 003°59'1111.1
2015-Jun-24 13:33N 51°58' E 003°41'1616.5
2015-Jun-24 12:34N 51°54' E 003°16'1818.4
2015-Jun-24 11:34N 51°48' E 002°47'1818.1
2015-Jun-24 10:33N 51°37' E 002°24'1918.7
2015-Jun-24 09:34N 51°23' E 002°04'1918.9
2015-Jun-24 08:33N 51°09' E 001°44'1919.2
2015-Jun-24 07:34N 50°54' E 001°26'1918.6
2015-Jun-24 06:34N 50°37' E 001°12'1918.7
2015-Jun-24 05:33N 50°29' E 000°46'3718.1
2015-Jun-24 03:33N 50°19' W 000°09'2018.1
2015-Jun-24 02:25N 50°13' W 000°40'1618.9
2015-Jun-24 01:34N 50°09' W 001°05'1919.4
2015-Jun-24 00:33N 50°04' W 001°34'1919.5
2015-Jun-23 23:34N 49°59' W 002°03'1919.4
2015-Jun-23 22:34N 49°54' W 002°32'2019.9
2015-Jun-23 21:34N 49°48' W 003°02'2120.9
2015-Jun-23 20:33N 49°41' W 003°33'  
Track history (hours):
 
Tides and Currents Weather Stations Pressure Air Temp Water Temp Dewpoint Dewpoint Depression Visibility Wind Speed Wind Dir Waves Ship Positions

MSC Nuria

Last reported at 2015-Jul-02 15:32 UTC. Time now 2015-Jul-02 16:30 UTC.
Position N 53°32' E 009°54'.

Length 275 m; draft 10 m.

Type: Ship (hazmat cat A). MMSI: 370272977.

Date/timePositionNaut miles runAvg speedWind from/ knotsBaromVisibWave heightAir tempDewpointWater temp
2015-Jul-02 15:32N 53°32' E 009°54'0 0.0
2015-Jul-02 14:26N 53°32' E 009°54'0 0.0
2015-Jul-02 13:32N 53°32' E 009°54'0 0.0
2015-Jul-02 12:28N 53°32' E 009°54'0 0.0
2015-Jul-02 11:31N 53°32' E 009°54'0 0.0
2015-Jul-02 10:24N 53°32' E 009°54'0 0.0
2015-Jul-02 09:33N 53°32' E 009°54'0 0.0
2015-Jul-02 08:32N 53°32' E 009°54'0 0.0
2015-Jul-02 07:05N 53°32' E 009°54'0 0.0
2015-Jul-02 06:30N 53°32' E 009°54'0 0.0
2015-Jul-02 05:28N 53°32' E 009°54'0 0.0
2015-Jul-02 04:28N 53°32' E 009°54'1 0.9
2015-Jul-02 03:33N 53°32' E 009°53'9 9.0
2015-Jul-02 02:33N 53°34' E 009°39'1211.9
2015-Jul-02 01:33N 53°44' E 009°27'1313.0
2015-Jul-02 00:33N 53°53' E 009°10'1514.9
2015-Jul-01 23:33N 53°51' E 008°45'1815.5
2015-Jul-01 22:22N 53°60' E 008°17'8 9.8
2015-Jul-01 21:33N 53°59' E 008°04'8 7.3
2015-Jul-01 20:25N 53°58' E 007°50'3 3.5
2015-Jul-01 19:33N 54°01' E 007°47'13 4.3
2015-Jul-01 16:33N 53°51' E 008°02'1313.1
2015-Jul-01 15:34N 53°43' E 008°19'1111.4
2015-Jul-01 14:33N 53°34' E 008°32'0 0.0
2015-Jul-01 13:25N 53°34' E 008°32'0 0.0
2015-Jul-01 12:31N 53°34' E 008°32'0 0.0
2015-Jul-01 10:30N 53°34' E 008°32'0 0.0
2015-Jul-01 09:29N 53°34' E 008°32'0 0.0
2015-Jul-01 08:29N 53°34' E 008°32'0 0.0
2015-Jul-01 07:28N 53°34' E 008°32'0 0.0
2015-Jul-01 06:19N 53°34' E 008°32'0 0.0
2015-Jul-01 05:31N 53°34' E 008°32'0 0.0
2015-Jul-01 04:33N 53°34' E 008°32'0 0.0
2015-Jul-01 03:33N 53°34' E 008°32'0 0.0
2015-Jul-01 02:32N 53°34' E 008°32'0 0.0
2015-Jul-01 01:32N 53°34' E 008°32'0 0.0
2015-Jul-01 00:31N 53°34' E 008°32'0 0.0
2015-Jun-30 23:31N 53°34' E 008°32'0 0.0
2015-Jun-30 22:19N 53°34' E 008°32'2 2.3
2015-Jun-30 21:33N 53°36' E 008°31'1615.9
2015-Jun-30 20:33N 53°46' E 008°10'1513.9
2015-Jun-30 19:30N 53°53' E 007°48'5 5.7
2015-Jun-30 18:32N 53°54' E 007°39'0 0.5
2015-Jun-30 17:33N 53°54' E 007°39'0 0.3
2015-Jun-30 16:33N 53°54' E 007°38'1919.1
2015-Jun-30 15:34N 53°52' E 007°06'2019.7
2015-Jun-30 14:34N 53°47' E 006°34'2020.2
2015-Jun-30 13:34N 53°41' E 006°01'2020.3
2015-Jun-30 12:34N 53°34' E 005°29'2019.8
2015-Jun-30 11:33N 53°27' E 004°58'1919.1
2015-Jun-30 10:33N 53°14' E 004°34'2120.6
2015-Jun-30 09:32N 52°56' E 004°17'2020.3
2015-Jun-30 08:33N 52°40' E 003°58'2020.1
2015-Jun-30 07:33N 52°25' E 003°35'1918.8
2015-Jun-30 06:33N 52°12' E 003°13'1818.5
2015-Jun-30 05:33N 52°02' E 002°48'1919.2
2015-Jun-30 04:33N 51°55' E 002°19'1919.4
2015-Jun-30 03:33N 51°49' E 001°49'1110.9
2015-Jun-30 02:34N 51°47' E 001°32'1616.3
2015-Jun-30 01:33N 51°34' E 001°14'1615.6
2015-Jun-30 00:34N 51°29' E 000°51'1313.2
2015-Jun-29 23:33N 51°30' E 000°29'6 6.3
2015-Jun-29 22:34N 51°27' E 000°21'1 0.9
2015-Jun-29 21:33N 51°28' E 000°20'0 0.0
2015-Jun-29 20:33N 51°28' E 000°20'0 0.0
2015-Jun-29 19:33N 51°28' E 000°20'0 0.0
2015-Jun-29 18:33N 51°28' E 000°20'0 0.0
2015-Jun-29 17:33N 51°28' E 000°20'0 0.0
2015-Jun-29 16:33N 51°28' E 000°20'0 0.0
2015-Jun-29 15:33N 51°28' E 000°20'0 0.0
2015-Jun-29 14:33N 51°28' E 000°20'0 0.0
2015-Jun-29 13:33N 51°28' E 000°20'0 0.0
2015-Jun-29 12:33N 51°28' E 000°20'0 0.0
2015-Jun-29 11:33N 51°28' E 000°20'0 0.0
2015-Jun-29 10:33N 51°28' E 000°20'0 0.0
2015-Jun-29 09:34N 51°28' E 000°20'0 0.0
2015-Jun-29 08:34N 51°28' E 000°20'0 0.0
2015-Jun-29 07:33N 51°28' E 000°20'0 0.0
2015-Jun-29 06:33N 51°28' E 000°20'0 0.0
2015-Jun-29 05:33N 51°28' E 000°20'0 0.0
2015-Jun-29 04:34N 51°28' E 000°20'0 0.0
2015-Jun-29 03:34N 51°28' E 000°20'0 0.0
2015-Jun-29 02:34N 51°28' E 000°20'0 0.0
2015-Jun-29 01:34N 51°28' E 000°20'0 0.0
2015-Jun-29 00:31N 51°28' E 000°20'0 0.0
2015-Jun-28 23:31N 51°28' E 000°20'0 0.0
2015-Jun-28 22:34N 51°28' E 000°20'5 5.2
2015-Jun-28 21:33N 51°29' E 000°28'1212.5
2015-Jun-28 20:33N 51°29' E 000°48'1514.8
2015-Jun-28 19:33N 51°34' E 001°11'1716.7
2015-Jun-28 18:33N 51°45' E 001°31'10 9.6
2015-Jun-28 17:33N 51°51' E 001°42'4 3.8
2015-Jun-28 16:33N 51°50' E 001°47'1414.4
2015-Jun-28 15:34N 51°35' E 001°52'1817.7
2015-Jun-28 14:34N 51°22' E 002°10'1717.2
2015-Jun-28 13:34N 51°23' E 002°38'1111.0
2015-Jun-28 12:33N 51°23' E 002°55'1413.9
2015-Jun-28 11:34N 51°25' E 003°17'1211.9
2015-Jun-28 10:33N 51°26' E 003°36'1010.5
2015-Jun-28 09:33N 51°21' E 003°51'8 7.8
2015-Jun-28 08:33N 51°24' E 004°02'8 8.3
2015-Jun-28 07:33N 51°21' E 004°14'2 1.7
2015-Jun-28 06:33N 51°21' E 004°17'0 0.3
2015-Jun-28 05:33N 51°21' E 004°17'2 1.7
2015-Jun-28 04:33N 51°19' E 004°19'0 0.0
2015-Jun-28 03:33N 51°19' E 004°19'0 0.0
2015-Jun-28 02:32N 51°19' E 004°19'0 0.0
2015-Jun-28 01:32N 51°19' E 004°19'0 0.0
2015-Jun-28 00:32N 51°19' E 004°19'0 0.0
2015-Jun-27 23:31N 51°19' E 004°19'0 0.0
2015-Jun-27 22:28N 51°19' E 004°19'0 0.0
2015-Jun-27 21:33N 51°19' E 004°19'0 0.0
2015-Jun-27 20:33N 51°19' E 004°19'0 0.0
2015-Jun-27 19:32N 51°19' E 004°19'0 0.0
2015-Jun-27 18:32N 51°19' E 004°19'0 0.0
2015-Jun-27 17:32N 51°19' E 004°19'0 0.0
2015-Jun-27 16:31N 51°19' E 004°19'0 0.0
2015-Jun-27 15:31N 51°19' E 004°19'0 0.0
2015-Jun-27 14:33N 51°19' E 004°19'0 0.0
2015-Jun-27 13:33N 51°19' E 004°19'0 0.0
2015-Jun-27 12:32N 51°19' E 004°19'0 0.0
2015-Jun-27 11:32N 51°19' E 004°19'0 0.0
2015-Jun-27 10:32N 51°19' E 004°19'0 0.0
2015-Jun-27 09:31N 51°19' E 004°19'0 0.0
2015-Jun-27 08:33N 51°19' E 004°19'0 0.0
2015-Jun-27 07:33N 51°19' E 004°19'0 0.0
2015-Jun-27 06:33N 51°19' E 004°19'0 0.0
2015-Jun-27 05:33N 51°19' E 004°19'0 0.0
2015-Jun-27 04:32N 51°19' E 004°19'0 0.0
2015-Jun-27 03:32N 51°19' E 004°19'0 0.0
2015-Jun-27 02:31N 51°19' E 004°19'2 1.7
2015-Jun-27 01:33N 51°21' E 004°18'0 0.4
2015-Jun-27 00:33N 51°21' E 004°17'6 6.0
2015-Jun-26 23:33N 51°22' E 004°08'8 8.0
2015-Jun-26 22:33N 51°22' E 003°55'1211.6
2015-Jun-26 21:34N 51°26' E 003°38'1413.6
2015-Jun-26 20:33N 51°24' E 003°16'10 9.5
2015-Jun-26 19:33N 51°29' E 003°02'1313.4
2015-Jun-26 18:33N 51°40' E 003°13'7 7.2
2015-Jun-26 17:33N 51°47' E 003°17'0 0.2
2015-Jun-26 16:23N 51°47' E 003°18'0 0.1
2015-Jun-26 15:14N 51°47' E 003°18'0 0.0
2015-Jun-26 14:28N 51°47' E 003°18'0 0.0
2015-Jun-26 13:19N 51°47' E 003°18'0 0.0
2015-Jun-26 12:31N 51°47' E 003°18'0 0.0
2015-Jun-26 11:30N 51°47' E 003°18'0 0.0
2015-Jun-26 10:33N 51°47' E 003°18'0 0.0
2015-Jun-26 09:32N 51°47' E 003°18'0 0.0
2015-Jun-26 08:32N 51°47' E 003°18'0 0.0
2015-Jun-26 07:31N 51°47' E 003°18'0 0.0
2015-Jun-26 06:28N 51°47' E 003°18'0 0.0
2015-Jun-26 05:28N 51°47' E 003°18'0 0.0
2015-Jun-26 04:33N 51°47' E 003°18'0 0.0
2015-Jun-26 03:33N 51°47' E 003°18'0 0.0
2015-Jun-26 02:26N 51°47' E 003°18'0 0.0
2015-Jun-26 01:26N 51°47' E 003°18'0 0.0
2015-Jun-26 00:28N 51°47' E 003°18'0 0.0
2015-Jun-25 23:31N 51°47' E 003°18'0 0.0
2015-Jun-25 22:33N 51°47' E 003°18'0 0.0
2015-Jun-25 21:33N 51°47' E 003°18'0 0.0
2015-Jun-25 20:33N 51°47' E 003°18'0 0.0
2015-Jun-25 19:32N 51°47' E 003°18'0 0.0
2015-Jun-25 18:26N 51°47' E 003°18'0 0.0
2015-Jun-25 17:31N 51°47' E 003°18'0 0.0
2015-Jun-25 16:31N 51°47' E 003°18'2 1.9
2015-Jun-25 15:33N 51°47' E 003°15'1414.3
2015-Jun-25 14:33N 52°01' E 003°21'1514.7
2015-Jun-25 13:33N 52°03' E 003°45'1211.6
2015-Jun-25 12:33N 51°59' E 004°03'2 1.9
2015-Jun-25 11:33N 51°58' E 004°04'0 0.0
2015-Jun-25 10:33N 51°58' E 004°04'0 0.0
2015-Jun-25 09:32N 51°58' E 004°04'0 0.0
2015-Jun-25 08:32N 51°58' E 004°04'0 0.0
2015-Jun-25 07:31N 51°58' E 004°04'0 0.0
2015-Jun-25 06:31N 51°58' E 004°04'0 0.0
2015-Jun-25 05:33N 51°58' E 004°04'0 0.0
2015-Jun-25 04:33N 51°58' E 004°04'0 0.0
2015-Jun-25 03:33N 51°58' E 004°04'0 0.0
2015-Jun-25 02:32N 51°58' E 004°04'0 0.0
2015-Jun-25 01:32N 51°58' E 004°04'0 0.0
2015-Jun-25 00:31N 51°58' E 004°04'0 0.0
2015-Jun-24 23:31N 51°58' E 004°04'0 0.0
2015-Jun-24 22:33N 51°58' E 004°04'0 0.0
2015-Jun-24 21:33N 51°58' E 004°04'0 0.0
2015-Jun-24 20:32N 51°58' E 004°04'0 0.0
2015-Jun-24 19:32N 51°58' E 004°04'0 0.0
2015-Jun-24 18:32N 51°58' E 004°04'0 0.0
2015-Jun-24 17:31N 51°58' E 004°04'0 0.0
2015-Jun-24 16:28N 51°58' E 004°04'0 0.0
2015-Jun-24 15:33N 51°58' E 004°04'4 3.9
2015-Jun-24 14:33N 52°00' E 003°59'1111.1
2015-Jun-24 13:33N 51°58' E 003°41'1616.5
2015-Jun-24 12:34N 51°54' E 003°16'1818.4
2015-Jun-24 11:34N 51°48' E 002°47'1818.1
2015-Jun-24 10:33N 51°37' E 002°24'1918.7
2015-Jun-24 09:34N 51°23' E 002°04'1918.9
2015-Jun-24 08:33N 51°09' E 001°44'1919.2
2015-Jun-24 07:34N 50°54' E 001°26'1918.6
2015-Jun-24 06:34N 50°37' E 001°12'1918.7
2015-Jun-24 05:33N 50°29' E 000°46'3718.1
2015-Jun-24 03:33N 50°19' W 000°09'2018.1
2015-Jun-24 02:25N 50°13' W 000°40'1618.9
2015-Jun-24 01:34N 50°09' W 001°05'1919.4
2015-Jun-24 00:33N 50°04' W 001°34'1919.5
2015-Jun-23 23:34N 49°59' W 002°03'1919.4
2015-Jun-23 22:34N 49°54' W 002°32'2019.9
2015-Jun-23 21:34N 49°48' W 003°02'2120.9
2015-Jun-23 20:33N 49°41' W 003°33'  

Dump ship's entire track history